Weather Service Report


211 
ASUS41 KPHI 250312
RWRPHI

REGIONAL WEATHER ROUNDUP
NATIONAL WEATHER SERVICE MOUNT HOLLY NJ
1100 PM EDT TUE MAY 24 2016

NOTE:  "FAIR" INDICATES FEW OR NO CLOUDS BELOW 12,000 FEET WITH NO
SIGNIFICANT WEATHER AND/OR OBSTRUCTIONS TO VISIBILITY.

 * = STATION DOES NOT REPORT PRECIPITATION (E.G. RAIN, SNOW, ETC.) 
        OR FOG.

NJZ015>026-250400-
SOUTHERN NEW JERSEY
  
CITY           SKY/WX    TMP DP  RH WIND       PRES   REMARKS
POMONA         CLEAR     68  54  60 SW7       29.98R                  
WILDWOOD*      CLEAR    N/A N/A N/A SW13      30.01R                  
MILLVILLE      CLEAR     67  54  63 W7        29.99R                  
MOUNT HOLLY    CLEAR     62  54  74 CALM      29.99R                  
TRENTON        CLEAR     62  53  72 N5        29.99R                  

$$
NJZ001>014-250400-
NORTHERN NEW JERSEY
  
CITY           SKY/WX    TMP DP  RH WIND       PRES   REMARKS
SUSSEX         CLEAR     55  52  89 CALM      30.01R                  
ANDOVER*         N/A     55  53  93 CALM      30.01R                  
MORRISTOWN     CLOUDY    55  52  88 CALM      30.00S                  
NEWARK         CLOUDY    68  51  54 CALM      29.98S                  
TETERBORO      CLOUDY    65  52  62 CALM      29.97R                  
CALDWELL       MOCLDY    62  56  80 CALM      30.00R                  
SOMERVILLE     CLEAR     57  54  89 CALM      29.98R                  
ALLAIRE*       PTCLDY    61  56  83 E3        30.01R                  
TOMS RIVER*    CLEAR     61  54  77 NE3       30.00R                  

$$
PAZ043-044-047-054-055-060>062-066>071-250400-
EASTERN PENNSYLVANIA
  
CITY           SKY/WX    TMP DP  RH WIND       PRES   REMARKS
PHILADELPHIA   CLEAR     73  47  39 N5        29.99R                  
NORTH PHILA    CLEAR     65  54  67 N3        30.01R                  
BLUE BELL*     CLEAR     61  54  77 NE6       29.99R                  
DOYLESTOWN     CLEAR     60  52  74 CALM      30.00R                  
QUAKERTOWN*    CLEAR     59  55  88 CALM      30.02R                  
PERKASIE*      FAIR      59  54  82 CALM      30.02R                  
POTTSTOWN      CLEAR     64  53  67 NE5       30.01R                  
LANCASTER      CLEAR     62  50  64 NW6       30.01R                  
COATESVILLE    CLEAR     68  46  45 W8        30.02R                  
READING        CLEAR     68  48  48 N5        29.99R                  
ALLENTOWN      CLEAR     61  52  72 NE3       30.01R                  
MOUNT POCONO   CLEAR     44  44 100 CALM      30.05R                  
HAZLETON       CLEAR     59  37  44 CALM      30.07R                  
LEHIGHTON      FAIR      52  46  82 CALM      30.03R                  
WILKES BARRE   CLEAR     62  43  49 SE7       30.01R                  

$$
DEZALL-MDZ008-012-015-019-020-250400-
DELAWARE AND EASTERN MARYLAND
  
CITY           SKY/WX    TMP DP  RH WIND       PRES   REMARKS
WILMINGTON     CLEAR     68  49  50 W6        29.99R                  
DOVER          CLEAR     70  56  62 SW8       30.00R                  
GEORGETOWN     CLEAR     68  54  60 SW8       30.04R                  
EASTON         CLEAR     68  60  74 SW3       30.07R                  
PATUXENT       CLEAR     68  53  58 SW8       30.05R                  
OCEAN CITY     CLEAR     68  54  60 W9        30.04R                  
WALLOPS ISLAND FAIR      70  52  52 SW9       30.07R                  
CAMBRIDGE      CLEAR     63  55  77 S3        30.05R                  
SALISBURY      CLEAR     64  54  69 SW7       30.05R                  

$$
PAZ001-021-NYZ056-072-MDZ011-DCZ001-250400-
OTHER NEARBY LOCATIONS
  
CITY           SKY/WX    TMP DP  RH WIND       PRES   REMARKS
HARRISBURG     PTCLDY    70  47  43 NW12      30.01R                  
STATE COLLEGE  CLEAR     64  45  48 W6        30.08R                  
WILLIAMSPORT   CLEAR     60  44  55 CALM      30.02R                  
BINGHAMTON     CLEAR     64  35  34 NW5       30.03R                  
NEW YORK CITY  CLOUDY    66  50  56 CALM      30.01S                  
BALTIMORE      CLEAR     62  51  67 W6        30.03R                  
WASHINGTON DC  FAIR      67  56  67 S5        30.06R                  

$$
  

Return to Home page


Western Regional Climate Center, wrcc@dri.edu